TimeCST,TemperatureF,Dew PointF,Humidity,Sea Level PressureIn,VisibilityMPH,Wind Direction,Wind SpeedMPH,Gust SpeedMPH,PrecipitationIn,Events,Conditions,WindDirDegrees,DateUTC
12:15 AM,6.8,-4.0,61,30.67,10.0,SSW,4.6,-,N/A,,Clear,200,2014-01-24 06:15:00
12:35 AM,6.8,-2.2,67,30.66,10.0,SSW,3.5,-,N/A,,Clear,210,2014-01-24 06:35:00
12:55 AM,6.8,-2.2,67,30.66,10.0,SSW,3.5,-,N/A,,Clear,210,2014-01-24 06:55:00
1:15 AM,6.8,-2.2,67,30.65,10.0,South,3.5,-,N/A,,Clear,190,2014-01-24 07:15:00
1:35 AM,3.2,-4.0,72,30.64,10.0,Calm,Calm,-,N/A,,Clear,0,2014-01-24 07:35:00
1:55 AM,5.0,-2.2,72,30.63,10.0,South,4.6,-,N/A,,Clear,190,2014-01-24 07:55:00
2:15 AM,5.0,-2.2,72,30.63,10.0,SSW,4.6,-,N/A,,Clear,200,2014-01-24 08:15:00
2:35 AM,5.0,-2.2,72,30.63,10.0,SSW,6.9,-,N/A,,Clear,200,2014-01-24 08:35:00
2:55 AM,5.0,-2.2,72,30.62,10.0,SSW,6.9,-,N/A,,Clear,210,2014-01-24 08:55:00
3:15 AM,5.0,-2.2,72,30.61,10.0,SSW,6.9,-,N/A,,Clear,200,2014-01-24 09:15:00
3:35 AM,5.0,-2.2,72,30.61,10.0,SSW,5.8,-,N/A,,Clear,210,2014-01-24 09:35:00
3:55 AM,6.8,-0.4,72,30.59,10.0,SSW,8.1,-,N/A,,Clear,200,2014-01-24 09:55:00
4:15 AM,6.8,-2.2,67,30.59,10.0,SSW,6.9,-,N/A,,Clear,210,2014-01-24 10:15:00
4:35 AM,6.8,-2.2,67,30.58,10.0,SW,9.2,-,N/A,,Clear,220,2014-01-24 10:35:00
4:55 AM,6.8,-2.2,67,30.57,10.0,SSW,8.1,-,N/A,,Clear,210,2014-01-24 10:55:00
5:15 AM,6.8,-2.2,67,30.56,10.0,SSW,8.1,-,N/A,,Clear,210,2014-01-24 11:15:00
5:35 AM,6.8,-2.2,67,30.55,10.0,SSW,8.1,-,N/A,,Clear,210,2014-01-24 11:35:00
5:55 AM,6.8,-2.2,67,30.54,10.0,SSW,10.4,-,N/A,,Clear,210,2014-01-24 11:55:00
6:15 AM,6.8,-2.2,67,30.53,10.0,SSW,9.2,-,N/A,,Clear,210,2014-01-24 12:15:00
6:35 AM,6.8,-2.2,67,30.51,10.0,SSW,10.4,16.1,N/A,,Clear,200,2014-01-24 12:35:00
6:55 AM,8.6,-2.2,62,30.50,10.0,South,11.5,16.1,N/A,,Clear,190,2014-01-24 12:55:00
7:15 AM,8.6,-2.2,62,30.49,10.0,SSW,10.4,-,N/A,,Clear,200,2014-01-24 13:15:00
7:35 AM,8.6,-2.2,62,30.47,10.0,SSW,11.5,18.4,N/A,,Clear,200,2014-01-24 13:35:00
7:55 AM,8.6,-2.2,62,30.46,10.0,SSW,10.4,17.3,N/A,,Clear,200,2014-01-24 13:55:00
8:15 AM,10.4,-0.4,62,30.46,10.0,SSW,10.4,-,N/A,,Clear,210,2014-01-24 14:15:00
8:35 AM,12.2,-0.4,57,30.45,10.0,SSW,10.4,-,N/A,,Clear,200,2014-01-24 14:35:00
8:55 AM,14.0,-0.4,53,30.45,10.0,SSW,8.1,-,N/A,,Clear,210,2014-01-24 14:55:00
9:15 AM,14.0,-0.4,53,30.44,10.0,SSW,10.4,-,N/A,,Clear,200,2014-01-24 15:15:00
9:35 AM,17.6,-0.4,45,30.43,10.0,SSW,15.0,21.9,N/A,,Clear,210,2014-01-24 15:35:00
9:55 AM,17.6,-0.4,45,30.42,10.0,SSW,13.8,25.3,N/A,,Clear,200,2014-01-24 15:55:00
10:15 AM,19.4,-2.2,39,30.41,10.0,SSW,20.7,25.3,N/A,,Clear,200,2014-01-24 16:15:00
10:35 AM,21.2,-2.2,36,30.40,10.0,SSW,13.8,19.6,N/A,,Clear,200,2014-01-24 16:35:00
10:55 AM,23.0,-4.0,31,30.38,10.0,SSW,15.0,24.2,N/A,,Clear,210,2014-01-24 16:55:00
11:15 AM,24.8,-4.0,28,30.36,10.0,SSW,15.0,26.5,N/A,,Clear,200,2014-01-24 17:15:00
11:35 AM,26.6,-4.0,26,30.33,10.0,SSW,18.4,25.3,N/A,,Clear,210,2014-01-24 17:35:00
11:55 AM,28.4,-4.0,25,30.31,10.0,SSW,19.6,25.3,N/A,,Clear,200,2014-01-24 17:55:00
12:15 PM,28.4,-4.0,25,30.27,10.0,SSW,17.3,25.3,N/A,,Clear,200,2014-01-24 18:15:00
12:35 PM,30.2,-5.8,21,30.25,10.0,SW,23.0,31.1,N/A,,Clear,220,2014-01-24 18:35:00
12:55 PM,32.0,-4.0,21,30.22,10.0,South,20.7,28.8,N/A,,Clear,190,2014-01-24 18:55:00
1:15 PM,32.0,-4.0,21,30.19,10.0,SSW,18.4,26.5,N/A,,Clear,210,2014-01-24 19:15:00
1:35 PM,32.0,-2.2,23,30.17,10.0,SSW,23.0,27.6,N/A,,Clear,200,2014-01-24 19:35:00
1:55 PM,33.8,-0.4,23,30.15,10.0,SSW,16.1,26.5,N/A,,Clear,210,2014-01-24 19:55:00
2:15 PM,33.8,-0.4,23,30.12,10.0,SSW,20.7,28.8,N/A,,Clear,200,2014-01-24 20:15:00
2:35 PM,33.8,1.4,25,30.10,10.0,SSW,19.6,28.8,N/A,,Clear,210,2014-01-24 20:35:00
2:55 PM,33.8,1.4,25,30.07,10.0,SSW,15.0,33.4,N/A,,Clear,210,2014-01-24 20:55:00
3:15 PM,35.6,3.2,26,30.06,10.0,SSW,16.1,28.8,N/A,,Clear,200,2014-01-24 21:15:00
3:35 PM,35.6,3.2,26,30.05,10.0,SSW,24.2,31.1,N/A,,Clear,200,2014-01-24 21:35:00
3:55 PM,35.6,5.0,28,30.04,10.0,SW,17.3,33.4,N/A,,Clear,220,2014-01-24 21:55:00
4:15 PM,35.6,5.0,28,30.03,10.0,SSW,16.1,29.9,N/A,,Clear,210,2014-01-24 22:15:00
4:35 PM,35.6,5.0,28,30.02,10.0,SW,21.9,31.1,N/A,,Clear,220,2014-01-24 22:35:00
4:55 PM,35.6,5.0,28,30.02,10.0,SSW,17.3,31.1,N/A,,Clear,210,2014-01-24 22:55:00
5:15 PM,33.8,5.0,30,30.01,10.0,SSW,19.6,27.6,N/A,,Clear,210,2014-01-24 23:15:00
5:35 PM,33.8,5.0,30,30.02,10.0,SW,15.0,25.3,N/A,,Clear,220,2014-01-24 23:35:00
5:55 PM,33.8,5.0,30,30.02,10.0,SW,19.6,24.2,N/A,,Clear,220,2014-01-24 23:55:00
6:15 PM,33.8,6.8,32,30.01,10.0,SSW,16.1,25.3,N/A,,Mostly Cloudy,210,2014-01-25 00:15:00
6:35 PM,33.8,6.8,32,30.00,10.0,SW,15.0,23.0,N/A,,Mostly Cloudy,220,2014-01-25 00:35:00
6:55 PM,33.8,8.6,35,29.99,10.0,SW,20.7,27.6,N/A,,Mostly Cloudy,220,2014-01-25 00:55:00
7:15 PM,33.8,8.6,35,29.99,10.0,SW,21.9,28.8,N/A,,Mostly Cloudy,230,2014-01-25 01:15:00
7:35 PM,33.8,8.6,35,29.99,10.0,SW,17.3,25.3,N/A,,Mostly Cloudy,230,2014-01-25 01:35:00
7:55 PM,33.8,8.6,35,29.97,10.0,SW,18.4,27.6,N/A,,Scattered Clouds,230,2014-01-25 01:55:00
8:15 PM,33.8,6.8,32,29.96,10.0,SW,13.8,28.8,N/A,,Mostly Cloudy,220,2014-01-25 02:15:00
8:35 PM,33.8,8.6,35,29.93,10.0,SSW,20.7,28.8,N/A,,Overcast,210,2014-01-25 02:35:00
8:55 PM,33.8,8.6,35,29.92,10.0,SW,17.3,29.9,N/A,,Overcast,220,2014-01-25 02:55:00
9:15 PM,33.8,8.6,35,29.92,10.0,SW,19.6,28.8,N/A,,Mostly Cloudy,220,2014-01-25 03:15:00
9:35 PM,33.8,8.6,35,29.90,10.0,SW,13.8,25.3,N/A,,Scattered Clouds,220,2014-01-25 03:35:00
9:55 PM,33.8,8.6,35,29.89,10.0,SW,16.1,28.8,N/A,,Mostly Cloudy,220,2014-01-25 03:55:00
10:15 PM,33.8,8.6,35,29.87,10.0,SW,20.7,32.2,N/A,,Mostly Cloudy,220,2014-01-25 04:15:00
10:35 PM,35.6,8.6,33,29.86,10.0,SW,21.9,26.5,N/A,,Overcast,220,2014-01-25 04:35:00
10:55 PM,35.6,8.6,33,29.86,10.0,SW,19.6,27.6,N/A,,Overcast,220,2014-01-25 04:55:00
11:15 PM,35.6,8.6,33,29.86,10.0,SW,19.6,29.9,N/A,,Overcast,230,2014-01-25 05:15:00
11:35 PM,35.6,10.4,35,29.84,10.0,SW,17.3,27.6,N/A,,Overcast,220,2014-01-25 05:35:00
11:55 PM,35.6,10.4,35,29.83,10.0,SW,17.3,28.8,N/A,,Overcast,230,2014-01-25 05:55:00